Location: Monte Vento
(45.4000°N, 10.7500°E)
Time: 22:04:41
(UTC+00:00)

Daily predictions for brighter satellites

Satellite Brightness Start Highest point End
(mag) Time Altitude Azimuth Time Altitude Azimuth Time Altitude Azimuth
Alouette 2 Rocket 4.0 19:37:59 10° N 19:42:06 62° ENE 19:48:01 10° SSE
Cosmos 2333 Rocket 2.3 19:39:43 10° S 19:45:19 62° ESE 19:50:58 10° NNE
BREEZE-M DEB (TANK) 4.0 19:40:19 10° SW 19:46:27 28° SSE 19:48:57 10° E
Cosmos 1844 Rocket 3.2 19:42:50 10° NNW 19:48:18 57° WSW 19:53:43 10° S
Cosmos 1953 Rocket 3.7 19:45:23 10° S 19:49:34 52° E 19:53:48 10° NNE
DELTA 2 R/B (1) 4.1 19:50:29 10° SW 19:55:38 39° SSE 20:00:48 10° E
Spot 2 Rocket 3.9 19:50:52 10° SE 19:55:47 52° ENE 20:00:45 10° N
Cosmos 2278 Rocket 3.0 19:51:19 10° NNW 19:56:39 40° NE 20:01:55 10° SE
USA 245 4.0 19:53:09 10° SE 19:56:45 46° ENE 20:01:18 10° N
Resurs 1-3 4.4 19:52:55 10° S 19:57:11 51° W 20:01:29 10° NNW
CZ-2C R/B 4.5 19:54:19 10° N 19:59:02 61° WNW 20:03:43 10° SSW
NOSS 0 Rocket 4.4 19:55:46 10° S 20:01:21 38° ESE 20:06:58 10° NE
Cosmos 1825 Rocket 3.8 19:57:30 10° SSW 20:01:56 76° W 20:06:26 10° N
Landsat 7 4.0 20:01:21 10° SSE 20:06:00 58° ENE 20:10:42 10° N
SL-16 R/B 4.1 20:07:35 10° ESE 20:09:10 11° E 20:10:45 10° ENE
Atlas Centaur 2 4.1 20:13:53 10° SSW 20:15:43 12° S 20:17:42 10° S
Cosmos 2181 Rocket 4.0 20:11:07 10° N 20:17:27 76° E 20:23:38 10° SSE
Cosmos 1680 Rocket 4.3 20:13:57 10° SSE 20:18:35 32° E 20:23:16 10° NE
CREW DRAGON DEMO-1 DEB 2.7 20:16:13 10° SW 20:19:16 78° SSE 20:22:21 10° ENE
Cosmos-2242 4.0 20:16:58 10° NNW 20:21:08 45° W 20:25:19 10° SSW
NOSS 3-4 (A) 4.3 20:15:34 10° NNW 20:22:22 56° NE 20:29:09 13° ESE
NOSS 3-4 (C) 4.3 20:15:41 10° NNW 20:22:28 55° NE 20:29:16 13° ESE
SPOT 5 3.5 20:18:43 14° SE 20:22:32 41° ENE 20:26:55 10° N
CARTOSAT-1 4.1 20:19:30 15° SE 20:22:46 43° ENE 20:26:52 10° N
BREEZE M DEB (TANK) 4.3 20:20:34 10° SSW 20:24:54 44° SE 20:40:11 10° ENE
Cosmos 967 Rocket 4.5 20:19:13 10° SSW 20:25:38 71° ESE 20:32:05 10° NE
Cosmos 2221 3.0 20:22:21 10° N 20:26:33 44° ENE 20:29:31 18° SE
Cosmos 1825 4.4 20:27:02 10° E 20:27:54 11° E 20:29:01 10° ENE
Cosmos 1315 Rocket 2.9 20:24:36 10° N 20:28:45 89° ENE 20:32:12 14° S
Meteor 1-11 4.5 20:25:20 10° SSW 20:30:57 73° WNW 20:36:42 10° N
USA 81 4.0 20:25:46 10° S 20:31:02 85° E 20:36:22 10° N
NOSS 3-3 (A) 4.3 20:25:18 10° SW 20:31:09 70° NW 20:37:48 10° NE
NOSS 3-3 (C) 4.3 20:25:23 10° SW 20:31:15 71° NW 20:37:54 10° NE
ATLAS CENTAUR R/B 2.2 20:29:11 10° NW 20:32:33 35° WSW 20:35:13 14° S
Gbstr 26 Del rocket 3.8 20:37:10 21° SSE 20:37:43 22° SE 20:40:40 10° E
Cosmos 923 Rocket 4.1 20:32:45 10° S 20:37:54 61° ESE 20:43:08 10° NNE
Gblst 52 Del rocket 4.4 20:33:57 10° WNW 20:39:32 63° SW 20:44:02 19° SE
SPOT 1/Viking Rocket 3.6 20:36:44 14° SSE 20:41:10 82° WSW 20:46:23 10° NNW
GEOS 3 Rocket 3.8 20:37:16 10° NE 20:42:33 53° ESE 20:47:48 10° SSW
Cosmos 2369 Rocket 4.5 20:41:42 10° N 20:44:19 13° NE 20:46:55 10° ENE
Cosmos 1980 3.6 20:41:36 10° SSW 20:47:11 68° ESE 20:52:48 10° NNE
Meteor 2-2 Rocket 4.3 20:43:20 10° N 20:49:08 75° ENE 20:53:12 20° SSE
ATLAS 2AS CENTAUR R/B 3.0 20:42:24 10° NW 20:50:02 71° NE 20:55:18 19° SE
Aureole 2 Rocket 4.1 20:49:06 10° NNE 20:51:11 18° ENE 20:52:08 15° E
Lacrosse 5 rocket 3.7 20:50:09 10° NNW 20:53:14 20° NNE 20:56:13 10° ENE
Terra 2.0 20:50:21 22° SE 20:53:17 58° ENE 20:57:57 10° N
Genesis I 3.1 20:49:36 10° SW 20:53:31 87° SE 20:57:26 10° NE
Cosmos 2151 4.5 20:52:38 19° ESE 20:53:49 21° E 20:57:03 10° NE
Cosmos 1408 3.4 20:55:56 28° SE 20:56:54 33° E 21:00:09 10° NNE
TSX-5 4.0 20:54:09 10° NW 20:57:50 68° WSW 21:00:20 25° SSE
Cosmos 1076 Rocket 3.7 20:56:10 24° SSE 20:58:28 53° E 21:02:37 10° NNE
Cosmos 158 Rocket 3.8 20:54:49 14° S 20:58:55 64° ESE 21:03:48 10° NNE
USA 215 3.5 20:52:55 10° ENE 20:59:08 44° SE 21:05:20 10° SSW
Cosmos 2219 Rocket 3.6 20:53:58 10° SW 20:59:12 41° NW 21:04:31 10° NNE
ERS-1 Rocket 3.0 20:56:37 20° S 21:00:12 79° WSW 21:05:16 10° NNW
Cosmos 2237 Rocket 2.2 20:58:30 10° SSW 21:04:11 86° ESE 21:09:56 10° NNE
COSMOS 2428 4.0 20:59:17 10° SW 21:04:38 42° NW 21:10:02 10° NNE
Meteor 2-17 Rocket 4.4 21:03:24 15° S 21:08:27 83° E 21:14:32 10° N
Resurs 01 Rocket 4.2 21:08:52 10° WSW 21:11:11 14° W 21:13:30 10° WNW
Cosmos 2184 Rocket 4.1 21:09:31 12° SSW 21:15:25 77° W 21:21:47 10° N
Iridium 2 4.2 21:14:33 10° N 21:18:15 45° E 21:19:17 35° SE
Cosmos 1371 Rocket 4.0 21:19:55 10° NNW 21:25:14 87° ENE 21:27:51 31° SSE
Cosmos 1943 Rocket 3.5 21:20:36 10° N 21:25:35 30° NE 21:29:11 16° ESE
Cosmos 1892 3.1 21:23:57 23° SSW 21:26:05 60° W 21:29:53 10° N
BREEZE-M (TANK) 4.3 21:22:23 10° SW 21:27:00 70° SE 21:48:01 10° ENE
Cosmos 1151 Rocket 4.3 21:24:10 10° NNE 21:27:51 26° ENE 21:29:07 23° E
Cosmos 2344 3.5 21:22:07 10° SSW 21:29:35 74° ESE 21:37:32 10° NE
Cosmos 2333 Rocket 4.5 21:25:22 10° WSW 21:30:01 25° NW 21:34:45 10° N
USA 267 3.9 21:25:12 10° E 21:31:31 52° NNE 21:37:51 10° NW
Thor Agena Rocket 4.2 21:28:47 10° NNE 21:33:28 36° E 21:34:47 31° SE
Cosmos 2112 Rocket 4.3 21:28:34 11° SSW 21:33:41 71° WNW 21:39:04 10° NNE
Cosmos 1420 Rocket 4.5 21:30:11 10° NNW 21:35:22 52° ENE 21:37:45 30° SE
Cosmos 1606 3.6 21:33:29 10° N 21:37:08 37° ENE 21:37:54 33° ESE
JB-3 4.1 21:35:22 10° NNE 21:39:13 88° W 21:40:27 41° SSW
Cosmos 2058 3.8 21:37:55 19° SW 21:40:36 45° WNW 21:44:35 10° N
Cosmos 2278 Rocket 3.3 21:35:35 10° NW 21:40:39 35° WSW 21:43:46 20° SSW
DELTA 2 R/B (1) 3.8 21:36:16 10° WSW 21:41:35 46° S 21:43:27 34° SE
Cosmos 44 3.1 21:44:54 17° SW 21:48:12 76° NW 21:52:39 10° NNE
Cosmos 2297 3.7 21:42:38 10° NNW 21:48:24 82° ENE 21:50:54 36° SSE
Cosmos 1933 4.1 21:44:41 10° N 21:48:29 38° ENE 21:49:13 34° ESE
Cosmos 2056 Rocket 3.7 21:43:12 10° NNW 21:48:37 70° WSW 21:50:54 35° S
Cosmos 1346 Rocket 4.4 21:49:52 21° E 21:49:52 21° E 21:52:45 10° NE
Nadezhda 3 Rocket 4.3 21:45:18 10° NNW 21:51:35 63° W 21:55:11 26° SSW
SL-16 R/B 2.1 21:49:05 27° SSW 21:52:15 78° ESE 21:57:58 10° NNE
Cosmos 2154 Rocket 4.4 21:51:39 18° SSW 21:56:17 58° WNW 22:02:26 10° N
Spot 4 4.0 21:55:58 40° SE 21:57:31 62° ENE 22:02:14 10° N
Cosmos 1340 3.1 22:00:03 43° E 22:00:03 43° E 22:03:38 10° NNE
Cosmos 1825 2.7 22:01:48 39° SW 22:02:53 54° WNW 22:06:37 10° N
ALOS 2 3.5 22:05:09 31° ESE 22:06:19 37° ENE 22:10:22 10° N
Cosmos 2341 Rocket 4.0 22:03:39 31° S 22:06:52 85° W 22:13:07 10° N
SL-8 Rocket 3.9 22:04:58 36° S 22:07:38 74° E 22:13:47 10° NNE
COSMOS 2455 3.0 22:04:02 10° NNW 22:10:06 71° ENE 22:12:49 34° SE
Cosmos 371 Rocket 3.2 22:06:28 10° NNW 22:11:22 88° WSW 22:12:39 50° SSE
Cosmos 1633 3.8 22:13:47 29° ENE 22:13:47 29° ENE 22:16:36 10° NNE
Cosmos 1452 Rocket 3.5 22:09:55 10° NNW 22:15:12 75° ENE 22:16:53 44° SE
IRIDIUM 104 4.3 22:16:27 45° SSE 22:17:59 70° E 22:23:11 10° N
Cosmos 405 4.1 22:15:05 10° N 22:18:19 32° ENE 22:18:19 32° ENE
GP-B 3.1 22:17:12 10° N 22:21:39 71° E 22:22:24 57° SSE
Gbstr 26 Del rocket 2.9 22:20:27 10° WSW 22:24:08 67° NNW 22:28:08 10° ENE
Aureole 2 Rocket 4.1 22:22:22 10° NW 22:24:08 21° W 22:24:08 21° W
Cosmos 1727 Rocket 4.2 22:20:41 10° N 22:26:55 63° E 22:29:19 38° SE
IRIDIUM 114 4.2 22:25:36 47° S 22:27:08 85° E 22:32:23 10° N
Cosmos 1603 4.2 22:26:58 39° SE 22:27:59 43° ESE 22:33:21 10° NE
Cosmos 2369 Rocket 2.5 22:24:01 10° NNW 22:29:34 60° ENE 22:31:45 36° SE
Cosmos 1515 Rocket 3.6 22:25:39 10° N 22:30:00 67° E 22:30:39 58° SE
MOS 1-B Rocket 4.2 22:22:45 10° NNE 22:30:08 84° WNW 22:33:20 33° SSW
Cosmos 2151 4.2 22:29:12 25° WSW 22:30:53 35° WNW 22:34:49 10° N
Cosmos 1328 Rocket 3.5 22:26:56 10° NNW 22:31:14 71° W 22:31:54 59° SSW
Terra 3.9 22:29:14 13° WSW 22:31:24 17° W 22:34:30 10° NW
RESURS DK-1 3.3 22:27:40 10° NNW 22:31:38 41° ENE 22:32:35 35° E
Lacrosse 5 rocket 1.5 22:29:08 10° NW 22:33:07 60° NE 22:33:47 50° E
Cosmos 1766 Rocket 4.1 22:32:47 38° SW 22:34:03 52° WNW 22:38:23 10° N
Helios 1A 4.1 22:34:29 30° E 22:35:19 33° ENE 22:39:04 10° N
IRIDIUM 103 4.3 22:34:43 47° SSW 22:36:17 81° W 22:41:32 10° N
ATLAS 2AS CENTAUR R/B 3.9 22:34:16 10° NW 22:40:20 28° WSW 22:42:43 23° SW
Meteor 2-3 Rocket 3.7 22:40:15 43° SSW 22:42:14 84° W 22:48:00 10° N
USA 215 3.6 22:35:50 10° NE 22:42:20 65° NNW 22:48:47 10° WSW
Cosmos 304 Rocket 3.7 22:40:26 10° NNW 22:45:18 87° WSW 22:46:12 60° SSE
CZ-4C R/B 3.1 22:38:24 10° NW 22:45:34 71° NE 22:50:52 24° SE
Sich 1 4.5 22:50:30 24° E 22:50:46 24° E 22:54:17 10° NE
Cosmos 1812 4.1 22:51:50 10° NNE 22:55:13 28° ENE 22:55:33 27° E
Cosmos 44 Rocket 3.1 22:55:47 63° SSE 22:56:09 66° ESE 23:00:52 10° NE
Cosmos 1743 Rocket 3.3 23:00:39 72° SSW 23:01:05 87° WNW 23:05:27 10° N
Cosmos 494 Rocket 3.9 23:00:39 56° SSE 23:01:37 71° ESE 23:06:46 10° NNE
ISS -2.5 23:05:32 36° NE 23:05:32 36° NE 23:07:41 10° ENE
Cosmos 1151 Rocket 4.3 23:01:40 10° NNW 23:05:22 28° W 23:05:57 27° WSW
Meteor 1-10 Rocket 4.5 23:01:20 10° N 23:06:51 59° ENE 23:08:34 41° SE
Cosmos 2263 4.2 23:02:03 10° NNW 23:07:50 86° ENE 23:09:39 46° SSE
Cosmos 1943 Rocket 2.6 23:04:07 10° NW 23:09:34 48° WSW 23:10:41 42° SW
BREEZE-M DEB (TANK) 3.6 23:07:06 10° W 23:10:39 72° N 23:22:55 10° ENE
Cosmos 2228 Rocket 3.0 23:07:24 10° N 23:12:00 82° W 23:12:32 68° SSW
USA 267 3.3 23:12:07 40° SSE 23:14:28 62° SW 23:20:58 10° NW
Landsat 4 3.9 23:18:24 10° NNE 23:21:58 61° E 23:21:58 61° E
USA 32 4.4 23:21:23 44° SE 23:22:37 54° E 23:27:46 10° NNE
Resurs 1-4 Rocket 4.4 23:21:30 10° ENE 23:22:59 11° E 23:24:29 10° ESE
SL-4 R/B 3.4 23:25:16 20° NE 23:25:16 20° NE 23:26:21 10° NE
CZ-4 R/B 4.2 23:20:07 10° NNE 23:24:43 48° E 23:25:20 45° SE
Cosmos 1943 3.1 23:23:20 46° SSW 23:25:07 85° WNW 23:30:50 10° NNE
Cosmos 1346 Rocket 4.1 23:25:21 28° W 23:25:56 30° WNW 23:29:26 10° N
Lacrosse 5 2.9 23:28:00 31° ESE 23:28:00 31° ESE 23:32:00 10° ENE
Cosmos 1821 Rocket 3.9 23:26:32 45° SSW 23:28:33 81° W 23:34:41 10° N
Cosmos 1782 3.8 23:25:16 10° NNW 23:28:48 35° W 23:28:48 35° W
Cosmos 1607 4.0 23:28:28 46° S 23:30:04 61° ESE 23:36:17 10° NE
Cosmos 1500 Rocket 4.2 23:31:01 40° WSW 23:31:44 43° WNW 23:35:56 10° N
YAOGAN 11 4.0 23:32:01 69° SSW 23:32:26 77° WSW 23:36:55 10° NNW
Cosmos 1331 Rocket 4.1 23:27:35 10° NNW 23:32:51 65° WSW 23:33:50 54° SSW
Meteor 1-27 Rocket 4.0 23:27:17 10° N 23:32:52 61° ENE 23:34:53 38° SE
Cosmos 1666 Rocket 4.1 23:32:39 44° ESE 23:33:04 46° E 23:37:15 10° NNE
Cosmos 2123 Rocket 4.0 23:29:12 10° N 23:35:24 72° E 23:37:42 40° SSE
SL-16 R/B 4.3 23:32:48 10° W 23:37:03 21° NW 23:41:19 10° N
ALOS 2 4.1 23:42:33 23° W 23:42:45 23° W 23:46:15 10° NW
CRYOSAT 2 4.3 23:42:52 10° N 23:47:45 79° W 23:48:41 58° SSW
Cosmos 1805 Rocket 3.7 23:49:06 54° WSW 23:49:37 58° WNW 23:53:55 10° N
Cosmos 2251 Rocket 4.4 23:51:57 31° SE 23:53:04 35° ESE 23:57:48 10° NE
COSMOS 2455 4.2 23:51:01 10° WNW 23:55:25 22° WSW 23:55:56 21° WSW
